QPF
0.02 0.01 0.00 0.01 0.01 0.01 0.02 0.03 0.05 0.04 0.03 0.03 0.02 0.04 0.05 0.08 0.07 0.03 0.02 0.01 0.01 0.01 0.02 0.06 0.06 0.05 0.04 0.04 0.04 0.04 0.04 0.04 0.04 0.06 0.08 0.13 0.12 0.15
0.02 0.01 0.01 0.01 0.01 0.01 0.02 0.02 0.03 0.04 0.03 0.02 0.02 0.03 0.05 0.08 0.09 0.05 0.03 0.01 0.01 0.01 0.01 0.03 0.05 0.04 0.04 0.05 0.07 0.06 0.05 0.03 0.03 0.04 0.06 0.09 0.11 0.11
0.02 0.01 0.01 0.01 0.01 0.02 0.03 0.02 0.03 0.03 0.03 0.02 0.02 0.03 0.04 0.05 0.08 0.06 0.04 0.02 0.01 0.01 0.01 0.02 0.03 0.03 0.03 0.04 0.04 0.07 0.08 0.05 0.03 0.03 0.05 0.06 0.08 0.10
0.01 0.01 0.01 0.02 0.01 0.01 0.02 0.02 0.02 0.03 0.03 0.02 0.01 0.02 0.02 0.03 0.06 0.07 0.04 0.03 0.01 0.01 0.01 0.01 0.02 0.02 0.03 0.04 0.04 0.05 0.05 0.03 0.02 0.02 0.02 0.04 0.05 0.07
0.01 0.01 0.01 0.02 0.01 0.01 0.01 0.02 0.02 0.02 0.02 0.01 0.01 0.01 0.01 0.02 0.02 0.06 0.05 0.03 0.02 0.01 0.02 0.01 0.01 0.01 0.02 0.02 0.03 0.02 0.02 0.02 0.01 0.01 0.01 0.01 0.02 0.03
0.04 0.02 0.01 0.01 0.02 0.02 0.01 0.01 0.01 0.01 0.01 0.01 0.01 0.01 0.01 0.02 0.02 0.05 0.06 0.04 0.02 0.01 0.01 0.02 0.01 0.01 0.01 0.01 0.01 0.01 0.01 0.01 0.01 0.01 0.01 0.01 0.01 0.01
0.05 0.03 0.01 0.01 0.01 0.02 0.02 0.02 0.02 0.01 0.01 0.01 0.01 0.01 0.01 0.02 0.02 0.04 0.04 0.04 0.03 0.02 0.01 0.02 0.01 0.01 0.01 0.01 0.01 0.01 0.01 0.02 0.02 0.02 0.02 0.01 0.01 0.01
0.05 0.05 0.03 0.01 0.01 0.01 0.01 0.02 0.02 0.02 0.01 0.01 0.01 0.01 0.01 0.01 0.02 0.02 0.03 0.03 0.03 0.02 0.02 0.02 0.02 0.01 0.02 0.02 0.02 0.02 0.02 0.02 0.02 0.01 0.01 0.02 0.01 0.01
0.03 0.05 0.04 0.02 0.01 0.01 0.01 0.01 0.03 0.02 0.01 0.01 0.01 0.01 0.02 0.02 0.02 0.02 0.02 0.02 0.03 0.02 0.02 0.02 0.02 0.02 0.02 0.02 0.02 0.01 0.01 0.01 0.01 0.01 0.01 0.01 0.01 0.01
0.02 0.02 0.04 0.03 0.02 0.01 0.01 0.01 0.03 0.03 0.02 0.02 0.01 0.01 0.01 0.02 0.02 0.02 0.02 0.01 0.01 0.02 0.01 0.01 0.01 0.01 0.01 0.01 0.01 0.01 0.01 0.01 0.01 0.01 0.01 0.01 0.01 0.02
0.01 0.01 0.02 0.02 0.03 0.02 0.01 0.02 0.03 0.04 0.04 0.03 0.02 0.01 0.01 0.01 0.01 0.01 0.01 0.01 0.01 0.01 0.01 0.01 0.01 0.01 0.00 0.01 0.00 0.00 0.00 0.00 0.00 0.01 0.01 0.01 0.01 0.01
0.01 0.01 0.01 0.02 0.04 0.04 0.02 0.02 0.02 0.02 0.02 0.01 0.01 0.00 0.00 0.00 0.01 0.01 0.01 0.01 0.01 0.01 0.01 0.01 0.01 0.01 0.01 0.00 0.00 0.00 0.00 0.00 0.00 0.00 0.00 0.01 0.01 0.01
0.01 0.01 0.01 0.02 0.03 0.04 0.03 0.03 0.03 0.03 0.02 0.01 0.01 0.01 0.00 0.00 0.00 0.01 0.01 0.01 0.00 0.00 0.00 0.00 0.00 0.00 0.01 0.00 0.00 0.00 0.00 0.00 0.00 0.00 0.00 0.00 0.00 0.00
0.01 0.01 0.01 0.01 0.02 0.03 0.03 0.02 0.03 0.03 0.02 0.02 0.02 0.02 0.01 0.00 0.00 0.01 0.01 0.01 0.00 0.00 0.00 0.00 0.00 0.00 0.00 0.00 0.00 0.00 0.00 0.00 0.00 0.00 0.00 0.00 0.00 0.00
0.01 0.01 0.01 0.02 0.01 0.01 0.02 0.02 0.03 0.04 0.03 0.02 0.02 0.02 0.02 0.01 0.01 0.01 0.01 0.01 0.00 0.00 0.00 0.00 0.00 0.00 0.00 0.00 0.00 0.00 0.00 0.00 0.00 0.00 0.00 0.00 0.00 0.00
0.00 0.01 0.01 0.02 0.02 0.01 0.01 0.02 0.02 0.03 0.03 0.03 0.02 0.01 0.02 0.02 0.02 0.01 0.01 0.01 0.00 0.00 0.00 0.00 0.00 0.00 0.00 0.00 0.00 0.00 0.00 0.00 0.00 0.00 0.00 0.00 0.00 0.01
0.01 0.01 0.01 0.01 0.02 0.01 0.01 0.01 0.01 0.02 0.02 0.02 0.02 0.01 0.01 0.01 0.01 0.01 0.02 0.01 0.01 0.01 0.01 0.01 0.00 0.00 0.00 0.00 0.00 0.00 0.00 0.00 0.00 0.00 0.01 0.01 0.01 0.01
0.01 0.01 0.01 0.01 0.02 0.02 0.02 0.01 0.01 0.01 0.01 0.01 0.01 0.01 0.01 0.01 0.01 0.01 0.01 0.01 0.01 0.01 0.01 0.01 0.00 0.01 0.01 0.00 0.00 0.00 0.01 0.01 0.01 0.01 0.01 0.02 0.02 0.02
0.01 0.01 0.01 0.01 0.01 0.02 0.03 0.02 0.01 0.01 0.01 0.01 0.01 0.01 0.01 0.01 0.01 0.01 0.01 0.01 0.01 0.01 0.01 0.01 0.01 0.01 0.01 0.01 0.01 0.00 0.01 0.01 0.01 0.01 0.01 0.01 0.02 0.02
0.01 0.01 0.01 0.01 0.01 0.02 0.02 0.03 0.02 0.01 0.02 0.02 0.01 0.01 0.01 0.01 0.01 0.02 0.02 0.02 0.02 0.02 0.02 0.02 0.02 0.03 0.03 0.02 0.02 0.01 0.01 0.01 0.01 0.01 0.01 0.01 0.02 0.02
0.05 0.04 0.03 0.02 0.02 0.02 0.02 0.03 0.03 0.02 0.02 0.02 0.02 0.02 0.01 0.01 0.02 0.02 0.02 0.02 0.02 0.02 0.02 0.02 0.02 0.03 0.03 0.03 0.03 0.02 0.01 0.01 0.02 0.02 0.02 0.02 0.02 0.02
0.06 0.06 0.06 0.04 0.03 0.03 0.03 0.03 0.03 0.03 0.03 0.02 0.03 0.02 0.02 0.02 0.02 0.02 0.02 0.03 0.03 0.02 0.02 0.02 0.02 0.03 0.03 0.03 0.03 0.02 0.01 0.01 0.02 0.03 0.03 0.02 0.02 0.02
0.05 0.04 0.04 0.03 0.03 0.03 0.03 0.03 0.03 0.03 0.03 0.02 0.03 0.03 0.02 0.02 0.02 0.02 0.02 0.03 0.03 0.03 0.03 0.02 0.02 0.03 0.03 0.03 0.03 0.02 0.02 0.02 0.01 0.02 0.02 0.02 0.02 0.02
MSLP
1021.99 1022.16 1022.36 1022.60 1022.87 1023.18 1023.54 1023.94 1024.39 1024.89 1025.43 1025.99 1026.57 1027.13 1027.66 1028.13 1028.53 1028.86 1029.12 1029.30 1029.41 1029.48 1029.49 1029.47 1029.41 1029.32 1029.20 1029.04 1028.86 1028.65 1028.42 1028.17 1027.90 1027.60 1027.27 1026.90 1026.49 1026.04
1021.89 1022.05 1022.22 1022.41 1022.63 1022.90 1023.22 1023.60 1024.03 1024.52 1025.06 1025.64 1026.23 1026.81 1027.37 1027.87 1028.31 1028.68 1028.98 1029.21 1029.37 1029.48 1029.54 1029.55 1029.53 1029.46 1029.36 1029.22 1029.04 1028.84 1028.62 1028.37 1028.11 1027.82 1027.51 1027.16 1026.78 1026.36
1021.73 1021.92 1022.10 1022.29 1022.50 1022.75 1023.05 1023.40 1023.82 1024.29 1024.81 1025.37 1025.95 1026.52 1027.06 1027.57 1028.01 1028.39 1028.71 1028.97 1029.17 1029.33 1029.44 1029.50 1029.52 1029.50 1029.44 1029.33 1029.18 1028.99 1028.78 1028.54 1028.29 1028.02 1027.72 1027.40 1027.05 1026.66
1021.50 1021.75 1021.98 1022.21 1022.44 1022.70 1023.00 1023.34 1023.74 1024.19 1024.69 1025.21 1025.75 1026.28 1026.79 1027.26 1027.68 1028.05 1028.37 1028.64 1028.87 1029.07 1029.23 1029.35 1029.43 1029.47 1029.46 1029.40 1029.29 1029.13 1028.95 1028.73 1028.50 1028.24 1027.97 1027.67 1027.34 1026.97
1021.21 1021.54 1021.83 1022.12 1022.39 1022.69 1023.01 1023.36 1023.76 1024.19 1024.66 1025.14 1025.63 1026.11 1026.56 1026.98 1027.35 1027.69 1027.99 1028.26 1028.51 1028.74 1028.94 1029.12 1029.27 1029.37 1029.43 1029.43 1029.38 1029.27 1029.13 1028.95 1028.75 1028.51 1028.26 1027.97 1027.66 1027.31
1020.85 1021.26 1021.63 1021.98 1022.32 1022.66 1023.01 1023.39 1023.79 1024.22 1024.66 1025.11 1025.55 1025.97 1026.37 1026.72 1027.04 1027.34 1027.61 1027.87 1028.12 1028.37 1028.61 1028.84 1029.04 1029.21 1029.34 1029.41 1029.43 1029.39 1029.31 1029.18 1029.02 1028.82 1028.59 1028.32 1028.01 1027.67
1020.45 1020.93 1021.36 1021.78 1022.17 1022.56 1022.95 1023.35 1023.77 1024.19 1024.62 1025.05 1025.45 1025.83 1026.17 1026.47 1026.75 1027.00 1027.24 1027.48 1027.72 1027.98 1028.24 1028.51 1028.76 1028.99 1029.18 1029.32 1029.41 1029.45 1029.44 1029.37 1029.27 1029.11 1028.92 1028.67 1028.38 1028.03
1020.03 1020.55 1021.03 1021.48 1021.92 1022.35 1022.77 1023.20 1023.63 1024.07 1024.50 1024.91 1025.30 1025.64 1025.95 1026.22 1026.46 1026.68 1026.90 1027.11 1027.35 1027.60 1027.87 1028.16 1028.44 1028.70 1028.94 1029.14 1029.30 1029.41 1029.47 1029.48 1029.44 1029.35 1029.20 1028.99 1028.71 1028.36
1019.61 1020.14 1020.65 1021.12 1021.58 1022.04 1022.49 1022.94 1023.39 1023.84 1024.28 1024.69 1025.08 1025.42 1025.72 1025.97 1026.20 1026.41 1026.60 1026.81 1027.03 1027.27 1027.54 1027.81 1028.10 1028.38 1028.64 1028.88 1029.09 1029.26 1029.38 1029.47 1029.50 1029.47 1029.38 1029.21 1028.97 1028.64
1019.20 1019.73 1020.24 1020.73 1021.20 1021.66 1022.13 1022.60 1023.07 1023.54 1023.99 1024.42 1024.82 1025.17 1025.48 1025.75 1025.99 1026.20 1026.39 1026.59 1026.80 1027.03 1027.27 1027.53 1027.79 1028.06 1028.32 1028.57 1028.80 1029.01 1029.18 1029.32 1029.42 1029.46 1029.43 1029.32 1029.12 1028.83
1018.81 1019.34 1019.85 1020.34 1020.82 1021.30 1021.78 1022.26 1022.75 1023.23 1023.70 1024.15 1024.57 1024.95 1025.29 1025.58 1025.84 1026.07 1026.29 1026.49 1026.69 1026.91 1027.12 1027.35 1027.58 1027.81 1028.04 1028.27 1028.49 1028.70 1028.90 1029.08 1029.23 1029.32 1029.36 1029.31 1029.17 1028.93
1018.45 1018.99 1019.51 1020.01 1020.50 1020.99 1021.49 1021.99 1022.49 1022.99 1023.48 1023.95 1024.39 1024.79 1025.16 1025.49 1025.78 1026.04 1026.28 1026.50 1026.71 1026.91 1027.11 1027.30 1027.48 1027.67 1027.85 1028.03 1028.21 1028.40 1028.59 1028.78 1028.95 1029.09 1029.18 1029.19 1029.12 1028.94
1018.12 1018.68 1019.22 1019.75 1020.27 1020.79 1021.30 1021.82 1022.33 1022.84 1023.34 1023.82 1024.28 1024.71 1025.10 1025.46 1025.79 1026.09 1026.36 1026.61 1026.83 1027.03 1027.21 1027.37 1027.51 1027.64 1027.76 1027.88 1028.01 1028.15 1028.31 1028.48 1028.65 1028.81 1028.93 1029.00 1028.99 1028.89
1017.80 1018.41 1019.00 1019.57 1020.13 1020.68 1021.22 1021.76 1022.28 1022.80 1023.30 1023.78 1024.24 1024.68 1025.09 1025.47 1025.83 1026.16 1026.47 1026.74 1026.99 1027.20 1027.38 1027.52 1027.62 1027.71 1027.77 1027.83 1027.89 1027.97 1028.08 1028.21 1028.36 1028.51 1028.66 1028.76 1028.80 1028.78
1017.48 1018.14 1018.79 1019.42 1020.03 1020.62 1021.19 1021.74 1022.28 1022.79 1023.29 1023.76 1024.21 1024.64 1025.06 1025.45 1025.83 1026.19 1026.52 1026.83 1027.10 1027.33 1027.52 1027.66 1027.75 1027.80 1027.83 1027.83 1027.83 1027.85 1027.90 1027.99 1028.10 1028.24 1028.38 1028.51 1028.60 1028.64
1017.14 1017.86 1018.56 1019.25 1019.91 1020.54 1021.13 1021.70 1022.24 1022.75 1023.23 1023.68 1024.12 1024.54 1024.94 1025.34 1025.72 1026.10 1026.45 1026.79 1027.09 1027.35 1027.56 1027.72 1027.81 1027.86 1027.86 1027.83 1027.79 1027.77 1027.77 1027.80 1027.88 1027.99 1028.13 1028.27 1028.39 1028.49
1016.77 1017.53 1018.28 1019.00 1019.69 1020.35 1020.97 1021.54 1022.08 1022.58 1023.05 1023.48 1023.90 1024.30 1024.69 1025.07 1025.46 1025.84 1026.21 1026.57 1026.90 1027.19 1027.43 1027.61 1027.73 1027.79 1027.80 1027.77 1027.71 1027.67 1027.64 1027.64 1027.69 1027.78 1027.91 1028.06 1028.21 1028.34
1016.35 1017.13 1017.89 1018.63 1019.34 1020.00 1020.63 1021.20 1021.74 1022.23 1022.69 1023.11 1023.51 1023.90 1024.28 1024.65 1025.03 1025.41 1025.79 1026.16 1026.51 1026.82 1027.09 1027.31 1027.47 1027.56 1027.60 1027.59 1027.56 1027.52 1027.49 1027.49 1027.53 1027.62 1027.74 1027.90 1028.07 1028.23
1015.90 1016.66 1017.41 1018.13 1018.82 1019.48 1020.09 1020.67 1021.20 1021.69 1022.15 1022.58 1022.98 1023.36 1023.74 1024.11 1024.48 1024.86 1025.23 1025.60 1025.96 1026.29 1026.58 1026.83 1027.03 1027.17 1027.26 1027.31 1027.32 1027.32 1027.32 1027.35 1027.40 1027.49 1027.62 1027.79 1027.97 1028.15
1015.42 1016.14 1016.84 1017.52 1018.17 1018.80 1019.40 1019.97 1020.50 1021.01 1021.49 1021.93 1022.35 1022.75 1023.14 1023.51 1023.88 1024.24 1024.60 1024.96 1025.31 1025.65 1025.96 1026.23 1026.47 1026.67 1026.82 1026.93 1027.01 1027.08 1027.14 1027.21 1027.30 1027.41 1027.56 1027.73 1027.92 1028.11
1014.92 1015.57 1016.20 1016.83 1017.43 1018.03 1018.61 1019.17 1019.72 1020.25 1020.76 1021.25 1021.70 1022.14 1022.54 1022.93 1023.29 1023.64 1023.99 1024.32 1024.66 1024.98 1025.29 1025.59 1025.86 1026.11 1026.32 1026.51 1026.68 1026.82 1026.95 1027.08 1027.22 1027.37 1027.53 1027.70 1027.89 1028.07
1014.39 1014.97 1015.54 1016.10 1016.66 1017.22 1017.78 1018.35 1018.92 1019.49 1020.05 1020.58 1021.09 1021.56 1022.00 1022.40 1022.76 1023.10 1023.43 1023.74 1024.04 1024.34 1024.65 1024.95 1025.25 1025.55 1025.83 1026.09 1026.33 1026.56 1026.77 1026.97 1027.15 1027.33 1027.50 1027.68 1027.85 1028.01
1013.83 1014.35 1014.86 1015.37 1015.89 1016.43 1016.99 1017.57 1018.18 1018.79 1019.39 1019.98 1020.54 1021.06 1021.52 1021.94 1022.30 1022.63 1022.93 1023.21 1023.48 1023.77 1024.06 1024.36 1024.69 1025.02 1025.35 1025.68 1026.00 1026.30 1026.58 1026.84 1027.07 1027.27 1027.44 1027.60 1027.74 1027.86
Thickness
5648 5647 5646 5645 5643 5642 5642 5641 5640 5639 5638 5638 5638 5638 5637 5636 5635 5636 5637 5635 5634 5634 5634 5634 5634 5634 5635 5635 5635 5635 5636 5637 5637 5638 5639 5640 5641 5643
5642 5642 5641 5640 5639 5637 5636 5635 5635 5634 5633 5634 5633 5633 5631 5631 5630 5631 5630 5629 5629 5628 5628 5628 5628 5628 5628 5628 5628 5629 5630 5629 5630 5630 5631 5632 5634 5635
5639 5638 5637 5636 5634 5633 5631 5630 5629 5629 5627 5628 5628 5628 5626 5626 5625 5626 5625 5625 5625 5623 5622 5622 5621 5621 5621 5621 5621 5621 5621 5621 5622 5622 5623 5624 5626 5628
5634 5634 5633 5631 5630 5629 5627 5626 5625 5625 5624 5622 5623 5622 5621 5621 5621 5620 5621 5620 5620 5618 5616 5616 5615 5614 5614 5614 5614 5613 5613 5613 5614 5614 5615 5617 5618 5619
5631 5630 5630 5629 5627 5626 5624 5622 5621 5621 5620 5619 5618 5617 5616 5616 5615 5615 5615 5614 5614 5613 5611 5610 5609 5608 5607 5607 5606 5606 5606 5606 5607 5607 5608 5609 5610 5611
5627 5626 5626 5626 5625 5623 5621 5619 5617 5616 5615 5615 5614 5613 5611 5611 5610 5610 5610 5609 5609 5609 5607 5605 5603 5602 5601 5600 5600 5600 5599 5599 5600 5600 5601 5601 5602 5603
5622 5622 5621 5620 5618 5617 5616 5615 5613 5612 5611 5611 5610 5610 5608 5606 5606 5606 5605 5604 5604 5603 5602 5600 5599 5598 5597 5595 5594 5593 5593 5593 5593 5593 5593 5594 5595 5596
5618 5617 5616 5614 5613 5610 5609 5608 5607 5608 5608 5607 5607 5606 5606 5604 5602 5600 5600 5599 5598 5597 5595 5594 5593 5593 5592 5590 5588 5587 5586 5586 5586 5586 5586 5587 5587 5588
5614 5613 5612 5611 5608 5609 5606 5603 5602 5601 5601 5603 5603 5602 5601 5600 5597 5596 5595 5594 5592 5591 5588 5588 5587 5586 5585 5583 5581 5580 5579 5579 5579 5579 5579 5579 5579 5580
5609 5609 5608 5607 5605 5604 5604 5602 5601 5599 5597 5597 5598 5598 5596 5594 5592 5591 5589 5588 5587 5584 5581 5582 5581 5580 5579 5577 5575 5574 5572 5572 5572 5572 5572 5572 5572 5573
5604 5603 5602 5602 5598 5597 5598 5598 5596 5595 5592 5590 5589 5589 5587 5586 5585 5584 5583 5581 5581 5579 5576 5575 5575 5573 5573 5572 5570 5568 5567 5566 5566 5566 5566 5566 5566 5567
5598 5597 5594 5594 5592 5590 5593 5593 5592 5591 5589 5587 5585 5584 5583 5581 5578 5578 5577 5576 5575 5573 5571 5568 5568 5566 5567 5567 5565 5563 5562 5561 5560 5560 5560 5560 5560 5560
5593 5592 5591 5587 5586 5585 5585 5587 5585 5584 5584 5583 5582 5581 5579 5577 5575 5573 5572 5570 5569 5567 5565 5562 5561 5560 5559 5560 5560 5559 5558 5558 5557 5556 5555 5555 5554 5553
5587 5587 5585 5581 5580 5579 5579 5578 5577 5576 5578 5577 5577 5575 5574 5572 5570 5568 5566 5564 5562 5561 5559 5556 5556 5554 5554 5554 5555 5554 5553 5552 5553 5553 5552 5550 5548 5548
5581 5579 5577 5575 5574 5573 5572 5571 5570 5571 5572 5571 5571 5570 5568 5566 5564 5562 5560 5557 5556 5555 5553 5551 5550 5549 5548 5548 5549 5548 5548 5547 5547 5547 5547 5545 5544 5544
5573 5572 5569 5568 5567 5567 5567 5567 5566 5566 5565 5565 5564 5563 5561 5558 5557 5555 5554 5552 5550 5549 5548 5545 5544 5543 5542 5542 5542 5543 5542 5541 5541 5541 5540 5540 5540 5539
5568 5567 5567 5566 5565 5565 5564 5563 5562 5560 5559 5558 5557 5556 5554 5552 5550 5548 5546 5545 5544 5544 5542 5540 5538 5537 5536 5536 5537 5537 5537 5537 5535 5534 5534 5535 5535 5535
5559 5561 5561 5561 5560 5559 5558 5557 5556 5554 5553 5551 5550 5549 5547 5546 5544 5542 5541 5540 5539 5538 5537 5535 5533 5531 5531 5531 5529 5530 5530 5530 5530 5528 5528 5528 5530 5530
5553 5555 5555 5554 5553 5552 5551 5550 5549 5548 5546 5544 5543 5542 5541 5539 5538 5536 5535 5534 5533 5532 5531 5529 5528 5527 5527 5529 5528 5522 5523 5524 5523 5523 5523 5522 5524 5525
5546 5547 5547 5546 5545 5544 5543 5542 5541 5540 5538 5537 5536 5535 5533 5532 5531 5529 5528 5526 5526 5525 5524 5523 5522 5521 5521 5522 5522 5520 5515 5517 5517 5518 5517 5517 5517 5517
5539 5539 5538 5538 5537 5536 5535 5534 5533 5532 5531 5530 5529 5527 5526 5524 5523 5521 5520 5518 5517 5517 5517 5517 5515 5512 5513 5512 5513 5515 5513 5510 5510 5510 5510 5511 5511 5512
5530 5530 5529 5529 5528 5527 5526 5525 5525 5524 5523 5522 5521 5520 5519 5517 5516 5514 5513 5512 5511 5510 5509 5509 5507 5507 5506 5506 5508 5509 5508 5506 5503 5502 5501 5502 5503 5505
5522 5521 5520 5519 5519 5518 5517 5517 5516 5516 5515 5514 5513 5511 5510 5508 5507 5506 5506 5505 5504 5503 5502 5501 5500 5500 5500 5500 5500 5501 5501 5500 5499 5498 5497 5496 5494 5494